This is the latest recevied weather packets stored in our database for station/object OE6ACM-10. If no packets are shown the sender has not sent any weather packets the latest 10 day(s).
| Time | Temp. | Humidity | Pressure | Rain* | Wind** | Luminosity | Snow |
|---|---|---|---|---|---|---|---|
| 1777818579 | 48.33° C | 28% | 925.4 hPa | - | - | - | - |
| 1777818279 | 47.22° C | 28% | 925.5 hPa | - | - | - | - |
| 1777817979 | 45.56° C | 28% | 925.5 hPa | - | - | - | - |
| 1777817679 | 46.11° C | 27% | 925.6 hPa | - | - | - | - |
| 1777817379 | 48.33° C | 29% | 925.6 hPa | - | - | - | - |
| 1777817079 | 46.11° C | 29% | 925.6 hPa | - | - | - | - |
| 1777816779 | 47.22° C | 29% | 925.7 hPa | - | - | - | - |
| 1777816479 | 45.56° C | 31% | 925.8 hPa | - | - | - | - |
| 1777816179 | 45.56° C | 30% | 925.7 hPa | - | - | - | - |
| 1777815879 | 43.89° C | 32% | 925.9 hPa | - | - | - | - |
| 1777815579 | 43.89° C | 33% | 925.9 hPa | - | - | - | - |
| 1777815279 | 43.89° C | 33% | 925.9 hPa | - | - | - | - |
| 1777814979 | 42.78° C | 34% | 926 hPa | - | - | - | - |
| 1777814679 | 42.78° C | 34% | 925.9 hPa | - | - | - | - |
| 1777814379 | 42.22° C | 34% | 926 hPa | - | - | - | - |
| 1777814079 | 42.22° C | 34% | 926.1 hPa | - | - | - | - |
| 1777813779 | 42.22° C | 34% | 926.1 hPa | - | - | - | - |
| 1777813479 | 41.67° C | 35% | 926.2 hPa | - | - | - | - |
| 1777813179 | 41.67° C | 35% | 926.2 hPa | - | - | - | - |
| 1777812879 | 41.67° C | 37% | 926.2 hPa | - | - | - | - |
| 1777812579 | 40.56° C | 38% | 926.3 hPa | - | - | - | - |
| 1777812279 | 40.56° C | 41% | 926.4 hPa | - | - | - | - |
| 1777811979 | 40.56° C | 41% | 926.4 hPa | - | - | - | - |
| 1777811679 | 40.56° C | 41% | 926.5 hPa | - | - | - | - |
| 1777811379 | 40° C | 43% | 926.5 hPa | - | - | - | - |
* Rain since midnight (hover to see other rain measurements)
** Current wind speed in m/s (hover to see current wind gust speed)